Location: ??????????
(48.4699°N, 37.9573°E)
Time: 21:08:40
(UTC+00:00)

Iridium 4 Rocket - Pass Details

Date: 20 January 2021
Orbit: 583 x 906 km, 86.9° (Epoch: 02 March)

Event Time Altitude Azimuth Distance (km) Brightness Sun altitude
Rises 16:58:19 0° 353° (N) 3,511 7.0 -27.8°
Reaches altitude 10° 17:00:51 10° 350° (N) 2,541 6.3 -28.2°
Maximum altitude 17:06:29 58° 273° (W) 973 4.2 -29.1°
Drops below altitude 10° 17:11:41 10° 196° (SSW) 2,346 6.1 -30.0°
Sets 17:13:57 0° 192° (SSW) 3,221 6.8 -30.4°
